Location: Mt. Graham
(32.7020°N, 109.8880°W)
Time: 07:44:12
(UTC-07:00)

Hubble Space Telescope - Pass Details

Date: 29 February 2024
Orbit: 513 x 517 km, 28.5° (Epoch: 24 April)

Event Time Altitude Azimuth Distance (km) Brightness Sun altitude
Rises 19:22:15 0° 263° (W) 2,624 6.1 -14.6°
Reaches altitude 10° 19:24:33 10° 257° (WSW) 1,738 4.6 -15.1°
Maximum altitude 19:28:23 44° 184° (S) 722 1.4 -15.9°
Enters shadow 19:30:10 26° 129° (SE) 1,032 1.8 -16.3°
